FW9692 Weather Reports


time (UTC)temp
C
wind
direction
speed
KPH
gust
KPH
rain 1hr
cm
rain 24hr
cm
rain mn
cm
humidity
%
barometer
mb
20260507193002 17 108 14.5 20.9 0.00 0.00 0.00 54 1006.1
20260507191603 17 85 4.8 25.7 0.00 0.00 0.00 55 1006.3
20260507191501 17 296 8.0 25.7 0.00 0.00 0.00 54 1006.2
20260507190110 16 221 6.4 19.3 0.00 0.00 0.00 57 1006.6
20260507184553 16 30 3.2 24.1 0.00 0.00 0.00 58 1006.9
20260507183111 16 33 8.0 16.1 0.00 0.00 0.00 59 1007.1
20260507181556 16 104 4.8 12.9 0.00 0.00 0.00 60 1007.3
20260507180052 15 90 9.7 20.9 0.00 0.00 0.00 61 1007.6
20260507174536 15 107 6.4 17.7 0.00 0.00 0.00 61 1008.0
20260507173045 15 90 6.4 17.7 0.00 0.00 0.00 61 1008.1
20260507171533 14 63 9.7 17.7 0.00 0.00 0.00 63 1008.3
20260507170033 14 67 8.0 20.9 0.00 0.00 0.00 64 1008.4
20260507164544 13 51 16.1 25.7 0.00 0.00 0.00 64 1008.6
20260507163032 13 56 12.9 20.9 0.00 0.00 0.00 65 1008.8
20260507161542 13 82 14.5 22.5 0.00 0.00 0.00 65 1008.9
20260507160031 13 65 9.7 22.5 0.00 0.00 0.00 66 1008.9
20260507154528 13 80 11.3 19.3 0.00 0.00 0.00 66 1009.1
20260507153034 12 57 16.1 22.5 0.00 0.00 0.00 66 1009.0
20260507151526 12 79 17.7 24.1 0.00 0.00 0.00 66 1009.0
20260507150031 12 79 16.1 20.9 0.00 0.00 0.00 66 1009.0
20260507144530 12 67 17.7 27.4 0.00 0.00 0.00 66 1009.1
20260507143025 12 79 17.7 25.7 0.00 0.00 0.00 66 1009.1
20260507141521 12 87 17.7 24.1 0.00 0.00 0.00 66 1009.1
20260507140021 12 90 17.7 24.1 0.00 0.00 0.00 67 1009.1
20260507134513 12 76 20.9 27.4 0.00 0.00 0.00 67 1009.1
20260507133010 12 61 22.5 27.4 0.00 0.00 0.00 67 1008.9
20260507131517 12 42 20.9 27.4 0.00 0.00 0.00 67 1008.7
20260507130007 12 44 20.9 29.0 0.00 0.00 0.00 66 1008.5
20260507124513 12 31 22.5 27.4 0.00 0.00 0.00 65 1008.1
20260507123006 12 36 19.3 25.7 0.00 0.00 0.00 64 1008.0
20260507121510 12 22 19.3 25.7 0.00 0.00 0.00 63 1007.8
20260507120006 11 347 19.3 27.4 0.00 0.00 0.00 62 1007.5
20260507114609 11 13 17.7 24.1 0.00 0.00 0.00 62 1007.2
20260507113125 11 13 17.7 25.7 0.00 0.00 0.00 62 1007.0
20260507111557 11 11 22.5 33.8 0.00 0.00 0.00 60 1006.9
20260507110051 11 346 24.1 33.8 0.00 0.00 0.00 60 1006.6
20260507104545 11 11 30.6 38.6 0.00 0.00 0.00 59 1006.5
20260507103049 11 351 27.4 38.6 0.00 0.00 0.00 58 1006.4
20260507101542 11 13 27.4 35.4 0.00 0.00 0.00 58 1006.2
20260507100038 12 15 27.4 35.4 0.00 0.00 0.00 57 1006.0
20260507094549 12 20 30.6 38.6 0.00 0.00 0.00 57 1006.0
20260507093049 12 30 30.6 43.5 0.00 0.00 0.00 56 1005.7
20260507091547 12 23 32.2 43.5 0.00 0.00 0.00 56 1005.4
20260507090042 12 348 33.8 46.7 0.00 0.00 0.00 56 1005.0
20260507084544 12 351 38.6 49.9 0.00 0.00 0.00 55 1004.7
20260507083036 13 11 41.8 57.9 0.00 0.00 0.00 54 1005.0
20260507081539 13 344 32.2 37.0 0.00 0.00 0.00 53 1005.1
20260507080030 13 348 33.8 46.7 0.00 0.00 0.00 52 1004.8
20260507074531 14 24 32.2 41.8 0.00 0.00 0.00 50 1004.9
20260507073025 16 344 38.6 49.9 0.00 0.00 0.00 43 1004.7
20260507071519 20 36 9.7 14.5 0.00 0.00 0.00 26 1003.6
20260507070017 20 191 3.2 11.3 0.00 0.00 0.00 28 1003.4
20260507064514 21 294 8.0 9.7 0.00 0.00 0.00 23 1003.3
20260507063016 21 303 4.8 11.3 0.00 0.00 0.00 23 1003.2
20260507061513 21 291 6.4 11.3 0.00 0.00 0.00 25 1002.9
20260507060011 21 298 6.4 12.9 0.00 0.00 0.00 23 1002.8
20260507054510 22 257 11.3 14.5 0.00 0.00 0.00 23 1002.7
20260507053010 22 273 12.9 17.7 0.00 0.00 0.00 21 1002.7
20260507051510 22 255 8.0 11.3 0.00 0.00 0.00 21 1002.7
20260507050014 23 298 11.3 12.9 0.00 0.00 0.00 21 1002.7
20260507044512 23 310 9.7 12.9 0.00 0.00 0.00 21 1002.5
20260507043019 23 310 8.0 11.3 0.00 0.00 0.00 20 1002.3
20260507041510 23 323 9.7 14.5 0.00 0.00 0.00 19 1002.1
20260507040008 22 9 4.8 9.7 0.00 0.00 0.00 21 1002.1
20260507034532 22 15 1.6 6.4 0.00 0.00 0.00 22 1001.9
20260507033024 22 150 3.2 9.7 0.00 0.00 0.00 23 1001.7
20260507031524 22 300 14.5 19.3 0.00 0.00 0.00 21 1001.4
20260507030024 22 302 16.1 19.3 0.00 0.00 0.00 22 1001.2
20260507024519 23 305 16.1 19.3 0.00 0.00 0.00 21 1000.9
20260507023015 23 298 19.3 24.1 0.00 0.00 0.00 21 1000.7
20260507021515 24 305 19.3 22.5 0.00 0.00 0.00 19 1000.6
20260507020022 25 304 25.7 32.2 0.00 0.00 0.00 18 1000.3
20260507014510 25 298 22.5 27.4 0.00 0.00 0.00 18 1000.1
20260507013010 26 307 24.1 32.2 0.00 0.00 0.00 17 999.9
20260507011512 26 298 32.2 38.6 0.00 0.00 0.00 16 999.5
20260507010011 26 292 24.1 37.0 0.00 0.00 0.00 16 999.4
20260507004610 27 315 27.4 33.8 0.00 0.00 0.00 16 999.0
20260507003006 27 311 22.5 29.0 0.00 0.00 0.00 16 998.7
20260507001519 27 292 35.4 45.1 0.00 0.00 0.00 15 998.8
20260506234511 27 268 20.9 40.2 0.00 0.00 0.00 15 998.7
20260506233012 27 290 25.7 37.0 0.00 0.00 0.00 16 998.7
20260506231510 27 259 24.1 40.2 0.00 0.00 0.00 16 998.7
20260506230009 27 310 37.0 48.3 0.00 0.00 0.00 15 998.7
20260506224604 27 289 33.8 48.3 0.00 0.00 0.00 15 998.8
20260506224501 27 290 37.0 48.3 0.00 0.00 0.00 15 998.7
20260506223103 27 273 27.4 51.5 0.00 0.00 0.00 15 998.8
20260506221617 27 275 29.0 49.9 0.00 0.00 0.00 14 998.8
20260506220100 27 284 29.0 45.1 0.00 0.00 0.00 15 998.8
20260506214512 27 288 32.2 51.5 0.00 0.00 0.00 15 998.9
20260506213016 27 257 33.8 45.1 0.00 0.00 0.00 15 999.0
20260506211509 27 279 24.1 35.4 0.00 0.00 0.00 15 999.1
20260506210009 26 286 27.4 54.7 0.00 0.00 0.00 16 999.2
20260506204505 26 304 37.0 51.5 0.00 0.00 0.00 16 999.4
20260506203008 26 272 38.6 46.7 0.00 0.00 0.00 17 999.5
20260506201504 26 309 37.0 48.3 0.00 0.00 0.00 18 999.6
20260506200003 26 277 30.6 54.7 0.00 0.00 0.00 18 999.8
20260506194601 26 306 37.0 57.9 0.00 0.00 0.00 18 999.8